Weather History for 15420 - March, 2010

Change the Weather History Date:

Tuesday, March 23, 2010

  Actual Average Record
Temperature  
Mean Temperature 44 °F -  
Max Temperature 46 °F 61 °F - ()
Min Temperature 43 °F 40 °F - ()
Degree Days  
Heating Degree Days 20    
Moisture  
Dew Point 43 °F    
Average Humidity 88    
Maximum Humidity 100    
Minimum Humidity 60    
Precipitation  
Precipitation 0.04 in 0.06 in - ()
Sea Level Pressure  
Sea Level Pressure 30.24 in    
Wind  
Wind Speed 12 mph ()    
Max Wind Speed 21 mph    
Max Gust Speed -    
Visibility 5.1 miles    
Events Rain    
T = Trace of Precipitation, MM = Missing Value Source: Averaged Metar Reports

Daily Weather History Graph

Daily Weather History Graph

Search for Another Location

Airport or City:

Trip Planner

Search our weather history database for the weather conditions in past years. The results will help you decide how hot, cold, wet, or windy it might be!

Date:

Astronomy

Mar. 23, 2010 Rise Set
Actual Time 6:13 AM EET 6:31 PM EET
Civil Twilight 5:44 AM EET 7:00 PM EET
Nautical Twilight 5:10 AM EET 7:34 PM EET
Astronomical Twilight 4:35 AM EET 8:10 PM EET
Moon 10:31 AM EET (3/23) 1:47 AM EET (3/23)
Length of Visible Light 13h 15m
Length of Day
12h 17m
Waxing Crescent, 50% of the Moon is Illuminated
Mar 23
Waxing Crescent
Mar 23
First Quarter
Mar 30
Full
Apr 6
Last Quarter
Apr 14
New

Hourly Weather History & Observations

Time (EET) Temp. Windchill Dew Point Humidity Pressure Visibility Wind Dir Wind Speed Gust Speed Precip Events Conditions
12:00 AM 57 °F - 47 °F 60% 30.17 in 6 mi ENE 11.2 mph - -   Mostly Cloudy
12:00 AM 55.4 °F - 50.0 °F 82% 30.12 in - East 16.1 mph - N/A   Clear
12:30 AM 55.4 °F - 50.0 °F 82% 30.15 in - East 16.1 mph - N/A   Clear
1:00 AM 55 °F - 45 °F 61% 30.18 in 6 mi ENE 13.4 mph - -   Mostly Cloudy
1:00 AM 53.6 °F - 48.2 °F 82% 30.15 in 6.2 mi East 18.4 mph - N/A Rain Light Rain
1:30 AM 53.6 °F - 48.2 °F 82% 30.18 in 6.2 mi East 16.1 mph - N/A Rain Light Rain
2:00 AM 53 °F - 44 °F 64% 30.21 in 6 mi ENE 13.4 mph - -   Overcast
2:00 AM 51.8 °F - 48.2 °F 88% 30.18 in 6.2 mi East 16.1 mph - N/A Rain Light Rain
2:30 AM 48.2 °F - 46.4 °F 93% 30.18 in 5.0 mi East 13.8 mph - N/A Rain Light Rain
3:00 AM 48 °F - 42 °F 71% 30.23 in 6 mi ENE 13.4 mph - - Rain Light Rain
3:00 AM 48.2 °F - 44.6 °F 87% 30.18 in 5.0 mi East 17.3 mph - N/A Rain Light Rain
3:30 AM 48.2 °F - 44.6 °F 87% 30.18 in 5.0 mi East 18.4 mph - N/A Rain Light Rain
4:00 AM 47 °F - 41 °F 71% 30.23 in 6 mi ENE 13.4 mph - - Rain Light Rain
4:00 AM 46.4 °F 39.5 °F 44.6 °F 93% 30.21 in 4.3 mi East 17.3 mph - N/A Rain Light Rain
4:30 AM 46.4 °F 39.5 °F 44.6 °F 93% 30.21 in 6.2 mi East 17.3 mph - N/A Rain Light Rain
5:00 AM 46 °F - 41 °F 76% 30.26 in 6 mi ENE 13.4 mph - - Rain Light Rain
5:00 AM 46.4 °F 39.5 °F 42.8 °F 87% 30.21 in 6.2 mi East 17.3 mph - N/A Rain Light Rain
5:30 AM 44.6 °F 36.6 °F 42.8 °F 93% 30.24 in 6.2 mi East 19.6 mph - N/A Rain Light Rain
6:00 AM 45 °F - 39 °F 73% 30.27 in 6 mi ENE 13.4 mph - - Rain Light Rain
6:00 AM 44.6 °F 37.2 °F 42.8 °F 93% 30.24 in 6.2 mi East 17.3 mph - N/A Rain Light Rain
6:30 AM 44.6 °F 36.6 °F 42.8 °F 93% 30.24 in 6.2 mi East 19.6 mph - N/A Rain Light Rain
7:00 AM 44 °F - 39 °F 77% 30.28 in 6 mi ENE 11.2 mph - - Rain Light Rain
7:00 AM 44.6 °F 36.9 °F 42.8 °F 93% 30.24 in 6.2 mi East 18.4 mph - N/A Rain Light Rain
7:30 AM 44.6 °F 36.9 °F 41.0 °F 87% 30.27 in 5.0 mi East 18.4 mph - N/A Rain Light Rain
8:00 AM 44 °F - 39 °F 76% 30.30 in 6 mi ENE 11.2 mph - - Rain Light Rain
8:00 AM 44.6 °F 37.2 °F 41.0 °F 87% 30.27 in 5.0 mi East 17.3 mph - N/A Rain Light Rain
8:30 AM 44.6 °F 36.9 °F 42.8 °F 93% 30.27 in 5.0 mi East 18.4 mph - N/A Rain Light Rain
9:00 AM 44 °F - 39 °F 76% 30.31 in 6 mi East 11.2 mph - - Rain Light Rain
9:00 AM 44.6 °F 36.4 °F 41.0 °F 87% 30.27 in 5.0 mi East 20.7 mph - N/A Rain Light Rain
9:30 AM 44.6 °F 37.2 °F 41.0 °F 87% 30.30 in 5.0 mi ESE 17.3 mph - N/A Rain Light Rain
10:00 AM 45 °F - 38 °F 68% 30.31 in 6 mi ENE 15.7 mph - - Rain Light Rain
10:00 AM 44.6 °F 37.2 °F 41.0 °F 87% 30.30 in 6.2 mi ESE 17.3 mph - N/A Rain Light Rain
10:30 AM 44.6 °F 37.4 °F 41.0 °F 87% 30.30 in 6.2 mi ESE 16.1 mph - N/A Rain Light Rain
11:00 AM 45 °F - 38 °F 70% 30.34 in 6 mi East 13.4 mph - - Rain Light Rain
11:00 AM 44.6 °F 36.9 °F 41.0 °F 87% 30.30 in 6.2 mi East 18.4 mph - N/A Rain Light Rain
11:30 AM 44.6 °F 37.8 °F 42.8 °F 93% 30.30 in 5.0 mi East 15.0 mph - N/A Rain Light Rain
12:00 PM 45 °F - 40 °F 75% 30.33 in 6 mi East 8.9 mph - - Rain Light Rain
12:00 PM 46.4 °F 39.8 °F 42.8 °F 87% 30.30 in 5.0 mi East 16.1 mph - N/A Rain Light Rain
12:30 PM 46.4 °F 40.1 °F 41.0 °F 81% 30.30 in 5.0 mi East 15.0 mph - N/A Rain Light Rain
1:00 PM 46 °F - 38 °F 67% 30.33 in 6 mi East 11.2 mph - - Rain Light Rain
1:00 PM 46.4 °F 40.7 °F 42.8 °F 87% 30.30 in 5.0 mi East 12.7 mph - N/A Rain Light Rain
1:30 PM 44.6 °F 39.2 °F 42.8 °F 93% 30.27 in 4.3 mi East 10.4 mph - N/A Rain Light Rain
2:00 PM 44 °F - 40 °F 79% 30.31 in 6 mi ENE 6.7 mph - - Rain Light Rain
2:00 PM 44.6 °F 38.8 °F 44.6 °F 100% 30.27 in 3.1 mi East 11.5 mph - N/A Rain Light Rain
2:30 PM 44.6 °F 39.7 °F 44.6 °F 100% 30.27 in 3.1 mi East 9.2 mph - N/A Rain Light Rain
3:00 PM 44 °F - 42 °F 89% 30.29 in 6 mi ENE 6.7 mph - - Rain Light Rain
3:00 PM 44.6 °F 40.2 °F 44.6 °F 100% 30.24 in 3.1 mi East 8.1 mph - N/A Rain Light Rain
3:30 PM 46.4 °F 41.5 °F 44.6 °F 93% 30.24 in 3.1 mi East 10.4 mph - N/A Rain Light Rain
4:00 PM 45 °F - 42 °F 86% 30.27 in 6 mi Calm Calm - - Rain Light Rain
4:00 PM 46.4 °F 41.5 °F 44.6 °F 93% 30.24 in 3.1 mi East 10.4 mph - N/A Rain Light Rain
5:00 PM 45 °F - 42 °F 87% 30.26 in 6 mi ENE 4.5 mph - - Rain Light Rain
5:00 PM 46.4 °F 42.4 °F 44.6 °F 93% 30.21 in 3.1 mi East 8.1 mph - N/A Rain Light Rain
5:30 PM 46.4 °F 41.9 °F 44.6 °F 93% 30.21 in 2.5 mi East 9.2 mph - N/A Rain Light Rain
6:00 PM 44 °F - 43 °F 95% 30.25 in 6 mi ENE 4.5 mph - - Rain Light Rain
6:00 PM 44.6 °F 40.7 °F 44.6 °F 100% 30.21 in 2.2 mi East 6.9 mph - N/A Rain Light Rain
6:30 PM 44.6 °F 41.4 °F 44.6 °F 100% 30.21 in 1.9 mi ESE 5.8 mph - N/A Rain Light Rain
7:00 PM 44 °F - 44 °F 97% 30.25 in 2 mi East 4.5 mph - - Rain Light Rain
7:00 PM 44.6 °F 40.7 °F 44.6 °F 100% 30.21 in 3.1 mi ESE 6.9 mph - N/A Rain Light Rain
7:30 PM 44.6 °F 41.4 °F 44.6 °F 100% 30.21 in 3.1 mi East 5.8 mph - N/A Rain Light Rain
8:00 PM 44 °F - 43 °F 97% 30.25 in 6 mi ENE 4.5 mph - - Rain Light Rain
8:00 PM 44.6 °F 42.2 °F 44.6 °F 100% 30.21 in 3.7 mi East 4.6 mph - N/A   Partly Cloudy
8:30 PM 44.6 °F 42.2 °F 44.6 °F 100% 30.21 in 3.7 mi East 4.6 mph - N/A   Partly Cloudy
9:00 PM 44 °F - 43 °F 97% 30.25 in 6 mi ENE 4.5 mph - -   Scattered Clouds
9:00 PM 44.6 °F 41.4 °F 44.6 °F 100% 30.21 in 4.3 mi East 5.8 mph - N/A   Partly Cloudy
9:30 PM 44.6 °F 42.2 °F 44.6 °F 100% 30.21 in 5.0 mi ENE 4.6 mph - N/A   Partly Cloudy
10:00 PM 44 °F - 43 °F 97% 30.24 in 6 mi NE 4.5 mph - -   Scattered Clouds
10:00 PM 44.6 °F 42.2 °F 44.6 °F 100% 30.18 in - ENE 4.6 mph - N/A   Clear
10:30 PM 44.6 °F 40.7 °F 44.6 °F 100% 30.18 in - ENE 6.9 mph - N/A   Clear
11:00 PM 43 °F - 43 °F 100% 30.22 in 6 mi NE 4.5 mph - -   Mostly Cloudy
11:00 PM 44.6 °F 41.4 °F 44.6 °F 100% 30.18 in - ENE 5.8 mph - N/A   Clear
11:30 PM 44.6 °F 41.4 °F 42.8 °F 93% 30.18 in - ENE 5.8 mph - N/A   Clear